This is the latest recevied weather packets stored in our database for station/object VE9LJW. If no packets are shown the sender has not sent any weather packets the latest 10 day(s).
| Time | Temp. | Humidity | Pressure | Rain* | Wind** | Luminosity | Snow |
|---|---|---|---|---|---|---|---|
| 1777990903 | 23.33° C | 54% | 1004.6 hPa | 0 mm | - | 675 W/m² | - |
| 1777990601 | 23.33° C | 53% | 1004.8 hPa | 0 mm | - | 548 W/m² | - |
| 1777989994 | 22.78° C | 53% | 1004.9 hPa | 0 mm | - | 581 W/m² | - |
| 1777989691 | 22.78° C | 55% | 1005.1 hPa | 0 mm | - | 647 W/m² | - |
| 1777989386 | 22.78° C | 53% | 1005.1 hPa | 0 mm | - | 522 W/m² | - |
| 1777989083 | 22.22° C | 56% | 1005.2 hPa | 0 mm | - | 466 W/m² | - |
| 1777988779 | 22.22° C | 57% | 1005.2 hPa | 0 mm | - | 568 W/m² | - |
| 1777988477 | 21.67° C | 57% | 1005.1 hPa | 0 mm | - | 551 W/m² | - |
| 1777988174 | 21.67° C | 57% | 1005.1 hPa | 0 mm | - | 552 W/m² | - |
| 1777987869 | 21.11° C | 60% | 1005.2 hPa | 0 mm | - | 553 W/m² | - |
| 1777987566 | 21.11° C | 61% | 1005.1 hPa | 0 mm | - | 528 W/m² | - |
| 1777987264 | 20° C | 62% | 1005.2 hPa | 0 mm | - | 509 W/m² | - |
| 1777986960 | 20° C | 62% | 1005 hPa | 0 mm | - | 502 W/m² | - |
| 1777986658 | 19.44° C | 64% | 1005 hPa | 0 mm | - | 516 W/m² | - |
| 1777986356 | 18.89° C | 66% | 1005.2 hPa | 0 mm | - | 420 W/m² | - |
| 1777986054 | 19.44° C | 66% | 1005.4 hPa | 0 mm | - | 445 W/m² | - |
| 1777985750 | 18.33° C | 69% | 1005.6 hPa | 0 mm | - | 458 W/m² | - |
| 1777985447 | 18.33° C | 71% | 1005.3 hPa | 0 mm | - | 388 W/m² | - |
| 1777985144 | 17.78° C | 71% | 1005.4 hPa | 0 mm | - | 362 W/m² | - |
| 1777984840 | 17.22° C | 73% | 1005.1 hPa | 0 mm | - | 250 W/m² | - |
| 1777984537 | 17.78° C | 74% | 1005.5 hPa | 0 mm | - | 147 W/m² | - |
| 1777984233 | 16.67° C | 74% | 1005.7 hPa | 0 mm | - | 268 W/m² | - |
| 1777983930 | 16.67° C | 75% | 1005.4 hPa | 0 mm | - | 182 W/m² | - |
| 1777983627 | 16.67° C | 75% | 1005.7 hPa | 0 mm | - | 146 W/m² | - |
| 1777983323 | 16.11° C | 75% | 1005.5 hPa | 0 mm | - | 245 W/m² | - |
* Rain latest hour (hover to see other rain measurements)
** Current wind speed in m/s (hover to see current wind gust speed)